DW3560 Weather Reports


time (UTC)temp
F
wind
direction
speed
knots
gust
knots
rain 1hr
in
rain 24hr
in
rain mn
in
humidity
%
barometer
mb
20260903070012 58 319 0.0 1.7 0.00 0.00 0.00 91 1016.9
20260903065502 58 320 0.0 1.7 0.00 0.00 0.00 91 1016.9
20260903065023 58 321 0.0 1.7 0.00 0.00 0.00 91 1016.9
20260903064523 58 328 0.0 1.7 0.00 0.00 0.00 91 1016.9
20260903064023 58 331 0.0 1.7 0.00 0.00 0.00 91 1016.9
20260903063523 58 340 0.0 1.7 0.00 0.00 0.00 91 1016.9
20260903063002 58 340 0.0 1.7 0.00 0.00 0.00 91 1016.9
20260903062502 58 340 0.0 1.7 0.00 0.00 0.00 91 1016.9
20260903062002 58 340 0.0 0.9 0.00 0.00 0.00 91 1016.9
20260903061502 58 341 0.0 0.9 0.00 0.00 0.00 90 1016.9
20260903061023 58 340 0.0 1.7 0.00 0.00 0.00 90 1016.9
20260903060502 58 339 0.0 1.7 0.00 0.00 0.00 90 1016.9
20260903060002 58 338 0.0 0.9 0.00 0.00 0.00 90 1016.9
20260903055502 58 338 0.0 0.9 0.00 0.00 0.00 90 1016.9
20260903055002 58 338 0.0 2.6 0.00 0.00 0.00 90 1016.9
20260903054523 58 338 0.0 2.6 0.00 0.00 0.00 90 1016.9
20260903054002 58 340 0.0 1.7 0.00 0.00 0.00 90 1016.9
20260903053502 58 340 0.0 1.7 0.00 0.00 0.00 89 1016.5
20260903053002 58 340 0.0 1.7 0.00 0.00 0.00 89 1016.5
20260903052523 58 342 0.0 1.7 0.00 0.00 0.00 89 1016.5
20260903052002 58 337 0.9 3.5 0.00 0.00 0.00 89 1016.5
20260903051502 58 334 0.9 3.5 0.00 0.00 0.00 89 1016.5
20260903051002 58 325 0.0 2.6 0.00 0.00 0.00 89 1016.5
20260903050502 58 327 0.0 2.6 0.00 0.00 0.00 88 1016.5
20260903050002 58 324 0.0 2.6 0.00 0.00 0.00 88 1016.5
20260903045502 59 317 0.9 4.3 0.00 0.00 0.00 88 1016.5
20260903045002 59 318 0.9 4.3 0.00 0.00 0.00 88 1016.5
20260903044523 59 306 0.9 3.5 0.00 0.00 0.00 88 1016.5
20260903044023 59 301 0.9 3.5 0.00 0.00 0.00 87 1016.5
20260903043502 59 317 0.9 3.5 0.00 0.00 0.00 87 1016.5
20260903043023 59 318 0.9 3.5 0.00 0.00 0.00 86 1016.5
20260903042502 59 324 0.0 1.7 0.00 0.00 0.00 86 1016.5
20260903042023 59 323 0.0 1.7 0.00 0.00 0.00 86 1016.5
20260903041502 60 320 0.0 2.6 0.00 0.00 0.00 86 1016.5
20260903041002 60 319 0.0 2.6 0.00 0.00 0.00 86 1016.5
20260903040502 60 318 0.0 1.7 0.00 0.00 0.00 85 1016.5
20260903040002 60 319 0.0 0.9 0.00 0.00 0.00 85 1016.5
20260903035523 60 319 0.0 1.7 0.00 0.00 0.00 85 1016.5
20260903035002 60 319 0.0 1.7 0.00 0.00 0.00 85 1016.5
20260903034502 60 321 0.0 1.7 0.00 0.00 0.00 84 1016.5
20260903034023 60 321 0.0 1.7 0.00 0.00 0.00 84 1016.5
20260903033523 60 321 0.0 0.9 0.00 0.00 0.00 84 1017.6
20260903033002 60 321 0.0 1.7 0.00 0.00 0.00 83 1017.6
20260903032502 60 321 0.0 1.7 0.00 0.00 0.00 83 1017.6
20260903032002 61 316 0.0 2.6 0.00 0.00 0.00 83 1017.6
20260903031502 61 314 0.0 2.6 0.00 0.00 0.00 83 1017.6
20260903031023 61 298 0.0 2.6 0.00 0.00 0.00 82 1017.6
20260903030502 61 282 0.9 2.6 0.00 0.00 0.00 82 1017.6
20260903030002 61 296 0.9 1.7 0.00 0.00 0.00 81 1017.6
20260903025502 61 319 0.9 4.3 0.00 0.00 0.00 80 1017.6
20260903025002 61 309 0.9 4.3 0.00 0.00 0.00 80 1017.6
20260903024502 62 306 0.9 3.5 0.00 0.00 0.00 79 1017.6
20260903024002 62 313 0.9 5.2 0.00 0.00 0.00 78 1017.6
20260903023502 62 306 0.9 5.2 0.00 0.00 0.00 78 1017.6
20260903023002 62 299 1.7 6.1 0.00 0.00 0.00 77 1017.6
20260903022502 63 299 0.9 6.1 0.00 0.00 0.00 76 1017.6
20260903022002 63 313 0.9 6.1 0.00 0.00 0.00 76 1017.6
20260903021523 63 322 1.7 7.0 0.00 0.00 0.00 75 1017.6
20260903021002 64 320 1.7 7.0 0.00 0.00 0.00 75 1017.6
20260903020502 64 308 1.7 7.0 0.00 0.00 0.00 74 1017.6
20260903020002 64 285 1.7 7.0 0.00 0.00 0.00 74 1017.6
20260903015523 64 300 1.7 5.2 0.00 0.00 0.00 73 1017.6
20260903015002 64 317 1.7 7.0 0.00 0.00 0.00 72 1017.6
20260903014502 65 306 1.7 7.0 0.00 0.00 0.00 71 1017.6
20260903014023 65 292 1.7 6.1 0.00 0.00 0.00 71 1017.6
20260903013502 65 302 1.7 6.1 0.00 0.00 0.00 71 1017.6
20260903013002 66 299 1.7 7.0 0.00 0.00 0.00 70 1017.6
20260903012502 66 291 1.7 7.0 0.00 0.00 0.00 68 1017.6
20260903012002 66 286 1.7 7.0 0.00 0.00 0.00 67 1017.6
20260903011502 67 264 1.7 7.0 0.00 0.00 0.00 65 1017.6
20260903011002 67 278 1.7 7.8 0.00 0.00 0.00 65 1017.6
20260903010502 68 300 1.7 7.8 0.00 0.00 0.00 65 1017.6
20260903010002 68 293 1.7 3.5 0.00 0.00 0.00 66 1017.6
20260903005502 68 308 1.7 8.7 0.00 0.00 0.00 66 1017.6
20260903005002 68 319 2.6 9.6 0.00 0.00 0.00 65 1017.6
20260903004502 68 327 2.6 9.6 0.00 0.00 0.00 65 1017.6
20260903004002 68 320 1.7 5.2 0.00 0.00 0.00 65 1017.6
20260903003502 69 316 1.7 7.8 0.00 0.00 0.00 66 1017.6
20260903003002 69 311 1.7 7.8 0.00 0.00 0.00 67 1017.6
20260903002504 69 288 1.7 7.0 0.00 0.00 0.00 67 1017.6
20260903002002 69 295 2.6 9.6 0.00 0.00 0.00 66 1017.6
20260903001502 70 308 1.7 9.6 0.00 0.00 0.00 65 1017.6
20260903001002 70 325 1.7 8.7 0.00 0.00 0.00 65 1017.6
20260903000502 70 323 2.6 8.7 0.00 0.00 0.00 66 1017.6
20260903000002 70 318 2.6 9.6 0.00 0.00 0.00 65 1017.6
20260902235502 70 306 2.6 9.6 0.00 0.00 0.00 65 1017.6
20260902235002 70 288 2.6 11.3 0.00 0.00 0.00 65 1017.6
20260902234502 70 299 2.6 11.3 0.00 0.00 0.00 65 1017.6
20260902234023 70 305 2.6 11.3 0.00 0.00 0.00 66 1017.6
20260902233502 70 283 2.6 7.8 0.00 0.00 0.00 66 1017.6
20260902233002 70 283 2.6 8.7 0.00 0.00 0.00 67 1017.6
20260902232502 70 274 3.5 9.6 0.00 0.00 0.00 68 1017.6
20260902232002 70 277 2.6 9.6 0.00 0.00 0.00 68 1017.6
20260902231502 70 288 2.6 8.7 0.00 0.00 0.00 69 1017.6
20260902231023 70 277 2.6 8.7 0.00 0.00 0.00 69 1017.6
20260902230502 71 299 1.7 7.0 0.00 0.00 0.00 68 1017.6
20260902230002 71 290 1.7 8.7 0.00 0.00 0.00 69 1017.6
20260902225502 70 312 2.6 9.6 0.00 0.00 0.00 70 1017.6
20260902225002 70 318 2.6 9.6 0.00 0.00 0.00 69 1017.6
20260902224502 70 270 2.6 7.0 0.00 0.00 0.00 70 1017.6
20260902224003 70 276 2.6 7.0 0.00 0.00 0.00 70 1017.6
20260902223502 70 295 2.6 7.0 0.00 0.00 0.00 70 1017.6
20260902223023 70 275 2.6 7.0 0.00 0.00 0.00 70 1017.6
20260902222502 70 278 1.7 7.0 0.00 0.00 0.00 70 1017.6
20260902222002 70 310 1.7 7.8 0.00 0.00 0.00 72 1017.6
20260902221502 69 279 2.6 9.6 0.00 0.00 0.00 72 1017.6
20260902221002 69 288 2.6 9.6 0.00 0.00 0.00 73 1017.6
20260902220502 69 312 1.7 7.8 0.00 0.00 0.00 73 1017.6
20260902220002 69 293 1.7 7.0 0.00 0.00 0.00 73 1017.6
20260902215502 69 278 2.6 6.1 0.00 0.00 0.00 73 1017.6
20260902215002 69 296 2.6 6.1 0.00 0.00 0.00 73 1017.6
20260902214523 69 299 1.7 6.1 0.00 0.00 0.00 74 1017.6
20260902214002 69 295 1.7 7.8 0.00 0.00 0.00 74 1017.6
20260902213502 69 304 1.7 7.8 0.00 0.00 0.00 74 1017.6
20260902213002 69 295 1.7 4.3 0.00 0.00 0.00 74 1017.6
20260902212523 68 294 1.7 8.7 0.00 0.00 0.00 75 1017.6
20260902212023 68 284 2.6 8.7 0.00 0.00 0.00 74 1017.6
20260902211502 69 267 2.6 8.7 0.00 0.00 0.00 74 1017.6
20260902211002 68 255 3.5 9.6 0.00 0.00 0.00 73 1017.6
20260902210502 69 270 2.6 9.6 0.00 0.00 0.00 74 1017.6
20260902210023 69 310 2.6 7.8 0.00 0.00 0.00 73 1017.6
20260902205502 69 319 2.6 7.0 0.00 0.00 0.00 73 1017.6
20260902205002 69 299 1.7 7.0 0.00 0.00 0.00 73 1017.6
20260902204502 70 268 1.7 7.0 0.00 0.00 0.00 72 1017.6
20260902204023 70 260 1.7 8.7 0.00 0.00 0.00 72 1017.6
20260902203523 70 279 1.7 8.7 0.00 0.00 0.00 73 1016.4
20260902203002 70 313 1.7 7.8 0.00 0.00 0.00 72 1016.4
20260902202502 70 316 1.7 7.8 0.00 0.00 0.00 72 1016.4
20260902202023 70 316 1.7 7.0 0.00 0.00 0.00 71 1016.4
20260902201502 71 327 1.7 10.4 0.00 0.00 0.00 70 1016.4
20260902201023 71 316 1.7 10.4 0.00 0.00 0.00 70 1016.4
20260902200502 71 303 2.6 8.7 0.00 0.00 0.00 69 1016.4
20260902200002 71 298 2.6 8.7 0.00 0.00 0.00 69 1016.4
20260902195503 71 276 2.6 8.7 0.00 0.00 0.00 69 1016.4
20260902195025 70 268 2.6 8.7 0.00 0.00 0.00 70 1016.4
20260902194523 70 263 2.6 7.8 0.00 0.00 0.00 71 1016.4
20260902194002 70 253 2.6 8.7 0.00 0.00 0.00 71 1016.4
20260902193502 70 248 3.5 8.7 0.00 0.00 0.00 70 1016.4
20260902193002 70 250 2.6 8.7 0.00 0.00 0.00 71 1016.4
20260902192502 69 251 2.6 7.8 0.00 0.00 0.00 72 1016.4
20260902192003 69 240 3.5 7.8 0.00 0.00 0.00 71 1016.4
20260902191502 69 225 3.5 8.7 0.00 0.00 0.00 70 1016.4
20260902191002 69 230 3.5 10.4 0.00 0.00 0.00 71 1016.4
20260902190502 68 248 3.5 10.4 0.00 0.00 0.00 72 1016.4
20260902190003 68 240 3.5 8.7 0.00 0.00 0.00 72 1016.4
20260902185502 68 238 2.6 7.0 0.00 0.00 0.00 73 1016.4
20260902185002 68 248 2.6 7.8 0.00 0.00 0.00 73 1016.4
20260902184502 67 253 2.6 7.8 0.00 0.00 0.00 74 1016.4
20260902184002 67 254 2.6 6.1 0.00 0.00 0.00 73 1016.4
20260902183502 67 268 1.7 6.1 0.00 0.00 0.00 73 1016.4
20260902183002 67 281 1.7 6.1 0.00 0.00 0.00 74 1016.4
20260902182502 67 262 1.7 6.1 0.00 0.00 0.00 73 1016.4
20260902182002 67 245 2.6 6.1 0.00 0.00 0.00 73 1016.4
20260902181502 67 232 1.7 5.2 0.00 0.00 0.00 72 1016.4
20260902181002 66 225 1.7 7.8 0.00 0.00 0.00 72 1016.4
20260902180502 66 220 2.6 7.8 0.00 0.00 0.00 73 1016.4
20260902180005 66 211 2.6 7.8 0.00 0.00 0.00 73 1016.4
20260902175523 66 215 2.6 7.8 0.00 0.00 0.00 73 1016.4
20260902175002 65 204 1.7 7.0 0.00 0.00 0.00 74 1016.4
20260902174523 65 191 1.7 7.0 0.00 0.00 0.00 74 1016.4
20260902174002 65 193 2.6 6.1 0.00 0.00 0.00 73 1016.4
20260902173523 65 192 2.6 7.8 0.00 0.00 0.00 74 1016.4
20260902173002 65 202 2.6 7.8 0.00 0.00 0.00 73 1016.4
20260902172502 65 197 3.5 7.0 0.00 0.00 0.00 73 1016.4
20260902172002 65 181 2.6 7.8 0.00 0.00 0.00 73 1016.4
20260902171502 65 184 3.5 7.8 0.00 0.00 0.00 73 1016.4
20260902171002 65 195 3.5 7.0 0.00 0.00 0.00 72 1016.4
20260902170502 66 189 3.5 7.0 0.00 0.00 0.00 71 1016.4
20260902170002 66 193 3.5 7.0 0.00 0.00 0.00 71 1016.4
20260902165502 66 204 2.6 7.0 0.00 0.00 0.00 71 1016.4
20260902165002 65 196 2.6 8.7 0.00 0.00 0.00 71 1016.4
20260902164502 65 195 2.6 8.7 0.00 0.00 0.00 71 1016.4
20260902164002 65 189 2.6 7.8 0.00 0.00 0.00 72 1016.4
20260902163523 65 180 2.6 7.8 0.00 0.00 0.00 72 1016.4
20260902163002 65 185 3.5 8.7 0.00 0.00 0.00 72 1016.4
20260902162502 65 195 3.5 8.7 0.00 0.00 0.00 72 1016.4
20260902162002 64 193 2.6 7.0 0.00 0.00 0.00 71 1016.4
20260902161502 64 179 3.5 7.0 0.00 0.00 0.00 72 1016.4
20260902161002 64 169 3.5 7.0 0.00 0.00 0.00 72 1016.4
20260902160502 64 170 3.5 8.7 0.00 0.00 0.00 72 1016.4
20260902160003 64 173 3.5 8.7 0.00 0.00 0.00 71 1016.4
20260902155502 63 168 3.5 7.8 0.00 0.00 0.00 71 1016.4
20260902155002 63 162 2.6 7.8 0.00 0.00 0.00 72 1016.4
20260902154502 62 160 1.7 6.1 0.00 0.00 0.00 73 1016.4
20260902154002 62 177 2.6 7.0 0.00 0.00 0.00 73 1016.4
20260902153502 61 191 2.6 7.0 0.00 0.00 0.00 74 1016.4
20260902153002 61 187 2.6 7.8 0.00 0.00 0.00 75 1016.4
20260902152502 60 183 1.7 7.8 0.00 0.00 0.00 76 1016.4
20260902152002 60 191 0.9 3.5 0.00 0.00 0.00 77 1016.4
20260902151502 60 199 1.7 5.2 0.00 0.00 0.00 77 1016.4
20260902151002 60 196 1.7 5.2 0.00 0.00 0.00 78 1016.4
20260902150502 60 188 1.7 5.2 0.00 0.00 0.00 78 1016.4
20260902150023 60 178 1.7 6.1 0.00 0.00 0.00 79 1016.4
20260902145502 59 170 2.6 6.1 0.00 0.00 0.00 79 1016.4
20260902145002 59 165 2.6 5.2 0.00 0.00 0.00 80 1016.4
20260902144523 59 163 1.7 6.1 0.00 0.00 0.00 81 1016.4
20260902144002 58 171 1.7 6.1 0.00 0.00 0.00 81 1016.4
20260902143502 58 172 1.7 5.2 0.00 0.00 0.00 81 1016.4
20260902143002 58 157 1.7 4.3 0.00 0.00 0.00 81 1016.4
20260902142502 58 150 1.7 7.8 0.00 0.00 0.00 81 1016.4
20260902142003 58 148 2.6 7.8 0.00 0.00 0.00 81 1016.4
20260902141502 57 144 1.7 5.2 0.00 0.00 0.00 81 1016.4
20260902141002 57 148 1.7 5.2 0.00 0.00 0.00 80 1016.4
20260902140502 57 156 0.9 3.5 0.00 0.00 0.00 81 1016.4
20260902140002 57 151 0.9 4.3 0.00 0.00 0.00 81 1016.4
20260902135502 57 139 1.7 4.3 0.00 0.00 0.00 81 1016.4
20260902135002 57 138 1.7 4.3 0.00 0.00 0.00 81 1016.4
20260902134502 57 144 1.7 3.5 0.00 0.00 0.00 81 1016.4
20260902134002 57 141 1.7 4.3 0.00 0.00 0.00 81 1016.4
20260902133502 57 138 1.7 4.3 0.00 0.00 0.00 81 1016.4
20260902133003 57 144 1.7 4.3 0.00 0.00 0.00 81 1016.4
20260902132523 57 152 1.7 4.3 0.00 0.00 0.00 80 1016.4
20260902132002 57 161 0.9 3.5 0.00 0.00 0.00 80 1016.4
20260902131502 57 154 0.9 4.3 0.00 0.00 0.00 81 1016.4
20260902131002 57 150 0.9 4.3 0.00 0.00 0.00 81 1016.4
20260902130502 58 154 0.9 6.1 0.00 0.00 0.00 81 1016.4
20260902130003 58 155 0.9 6.1 0.00 0.00 0.00 81 1016.4
20260902125502 58 153 0.9 3.5 0.00 0.00 0.00 81 1016.4
20260902125003 58 152 0.9 3.5 0.00 0.00 0.00 81 1016.4
20260902124502 58 154 0.9 4.3 0.00 0.00 0.00 81 1016.4
20260902124003 58 158 0.9 4.3 0.00 0.00 0.00 82 1016.4
20260902123503 58 157 0.9 4.3 0.00 0.00 0.00 82 1016.4
20260902123003 58 154 0.9 3.5 0.00 0.00 0.00 82 1016.4
20260902122524 57 155 0.9 3.5 0.00 0.00 0.00 82 1016.4
20260902122002 57 162 0.9 3.5 0.00 0.00 0.00 83 1016.4
20260902121502 57 170 0.9 4.3 0.00 0.00 0.00 83 1016.4
20260902121003 57 162 0.9 4.3 0.00 0.00 0.00 84 1016.4
20260902120502 57 150 0.9 4.3 0.00 0.00 0.00 85 1016.4
20260902120003 57 140 0.9 6.1 0.00 0.00 0.00 85 1016.4
20260902115503 57 142 0.9 6.1 0.00 0.00 0.00 85 1016.4
20260902115003 57 147 0.9 3.5 0.00 0.00 0.00 85 1016.4
20260902114502 57 149 0.9 3.5 0.00 0.00 0.00 86 1016.4
20260902114002 57 149 0.9 3.5 0.00 0.00 0.00 86 1016.4
20260902113503 56 150 0.9 2.6 0.00 0.00 0.00 86 1016.4
20260902113003 56 148 0.9 3.5 0.00 0.00 0.00 86 1016.4
20260902112502 56 146 0.9 3.5 0.00 0.00 0.00 86 1016.4
20260902112002 56 143 0.0 2.6 0.00 0.00 0.00 87 1016.4
20260902111503 56 144 0.0 2.6 0.00 0.00 0.00 86 1016.4
20260902111002 56 144 0.0 2.6 0.00 0.00 0.00 87 1016.4
20260902110502 56 144 0.0 1.7 0.00 0.00 0.00 87 1016.4
20260902110003 56 144 0.0 0.9 0.00 0.00 0.00 87 1014.4
20260902105503 56 146 0.0 2.6 0.00 0.00 0.00 87 1014.4
20260902105002 56 150 0.0 2.6 0.00 0.00 0.00 87 1014.4
20260902104524 56 157 0.0 1.7 0.00 0.00 0.00 87 1014.4
20260902104002 56 170 0.0 2.6 0.00 0.00 0.00 87 1014.4
20260902103503 56 178 0.0 2.6 0.00 0.00 0.00 88 1014.4
20260902103002 56 185 0.0 0.9 0.00 0.00 0.00 88 1014.4
20260902102502 56 187 0.0 0.9 0.00 0.00 0.00 88 1014.4
20260902102002 56 189 0.0 0.9 0.00 0.00 0.00 88 1014.4
20260902101503 56 197 0.0 1.7 0.00 0.00 0.00 88 1014.4
20260902101003 56 204 0.0 1.7 0.00 0.00 0.00 88 1014.4
20260902100502 56 211 0.0 0.9 0.00 0.00 0.00 89 1014.4
20260902100024 56 211 0.0 0.9 0.00 0.00 0.00 89 1014.4
20260902095503 56 211 0.0 0.9 0.00 0.00 0.00 89 1014.4
20260902095023 57 0 0.0 0.0 0.00 0.00 0.00 89 1014.4
20260902094502 57 0 0.0 0.0 0.00 0.00 0.00 89 1014.4
20260902094023 57 0 0.0 0.0 0.00 0.00 0.00 89 1014.4
20260902093502 57 0 0.0 0.0 0.00 0.00 0.00 89 1014.4
20260902093002 57 0 0.0 0.0 0.00 0.00 0.00 89 1014.4
20260902092503 57 0 0.0 0.0 0.00 0.00 0.00 89 1014.4
20260902092023 57 0 0.0 0.0 0.00 0.00 0.00 89 1014.4
20260902091503 57 0 0.0 0.0 0.00 0.00 0.00 89 1014.4
20260902091003 57 213 0.0 0.9 0.00 0.00 0.00 89 1014.4
20260902090503 57 213 0.0 0.9 0.00 0.00 0.00 89 1014.4
20260902090003 57 213 0.0 0.9 0.00 0.00 0.00 89 1014.4
20260902085503 57 213 0.0 0.9 0.00 0.00 0.00 89 1014.4
20260902085002 57 0 0.0 0.0 0.00 0.00 0.00 89 1014.4
20260902084503 57 0 0.0 0.0 0.00 0.00 0.00 89 1014.4
20260902084003 57 0 0.0 0.0 0.00 0.00 0.00 89 1014.4
20260902083523 57 213 0.0 0.9 0.00 0.00 0.00 89 1014.4
20260902083003 57 213 0.0 0.9 0.00 0.00 0.00 89 1014.4
20260902082502 57 0 0.0 0.0 0.00 0.00 0.00 89 1014.4
20260902082002 57 212 0.0 0.9 0.00 0.00 0.00 89 1014.4
20260902081503 57 205 0.0 1.7 0.00 0.00 0.00 90 1014.4
20260902081002 57 189 0.0 1.7 0.00 0.00 0.00 90 1014.4
20260902080502 57 170 0.0 1.7 0.00 0.00 0.00 90 1014.4
20260902080024 57 156 0.0 0.9 0.00 0.00 0.00 90 1014.4
20260902075503 57 156 0.0 1.7 0.00 0.00 0.00 89 1014.4
20260902075003 57 159 0.0 2.6 0.00 0.00 0.00 89 1014.4
20260902074524 57 177 0.0 2.6 0.00 0.00 0.00 89 1014.4
20260902074024 57 194 0.0 1.7 0.00 0.00 0.00 89 1014.4
20260902073503 57 195 0.0 1.7 0.00 0.00 0.00 89 1014.4
20260902073003 57 195 0.9 2.6 0.00 0.00 0.00 89 1014.4
20260902072502 57 197 0.9 2.6 0.00 0.00 0.00 89 1014.4
20260902072003 57 197 0.0 1.7 0.00 0.00 0.00 89 1014.4
20260902071502 57 198 0.0 0.9 0.00 0.00 0.00 89 1014.4
20260902071003 57 198 0.0 0.9 0.00 0.00 0.00 88 1014.4
20260902070524 57 198 0.0 0.9 0.00 0.00 0.00 88 1014.4